owner,sensor,date,latitude,longitude,vertical_datum,direction_of_sea_water_velocity,sea_water_speed,upward_sea_water_velocity,qcFlag 
TABS,ioos:station:wmo:42046:1,2004-12-01T00:00:00Z,27.8903,-94.0367,2.0,162.5070859,15.76924856,-99999.0,'11111222,11111222,99999999' 
TABS,ioos:station:wmo:42046:1,2004-12-01T00:30:00Z,27.8903,-94.0367,2.0,147.0412698,18.03199933,-99999.0,'11111222,11111222,99999999' 
TABS,ioos:station:wmo:42046:1,2004-12-01T01:00:00Z,27.8903,-94.0367,2.0,132.2674034,18.68886834,-99999.0,'11111222,11111222,99999999' 
TABS,ioos:station:wmo:42046:1,2004-12-01T01:30:00Z,27.8903,-94.0367,2.0,142.4417019,23.47569381,-99999.0,'11111222,11111222,99999999' 
TABS,ioos:station:wmo:42046:1,2004-12-01T02:00:00Z,27.8903,-94.0367,2.0,155.7019192,15.26192976,-99999.0,'11111222,11111222,99999999' 
TABS,ioos:station:wmo:42046:1,2004-12-01T02:30:00Z,27.8903,-94.0367,2.0,147.5171611,19.08592413,-99999.0,'11111222,11111222,99999999' 
TABS,ioos:station:wmo:42046:1,2004-12-01T03:00:00Z,27.8903,-94.0367,2.0,148.403155,17.38758753,-99999.0,'11111222,11111222,99999999' 
TABS,ioos:station:wmo:42046:1,2004-12-01T03:30:00Z,27.8903,-94.0367,2.0,144.0328433,19.54642678,-99999.0,'11111222,11111222,99999999' 
TABS,ioos:station:wmo:42046:1,2004-12-01T04:00:00Z,27.8903,-94.0367,2.0,164.1341188,16.78959797,-99999.0,'11111222,11111222,99999999' 
TABS,ioos:station:wmo:42046:1,2004-12-01T04:30:00Z,27.8903,-94.0367,2.0,158.5981931,15.70278001,-99999.0,'11111222,11111222,99999999' 
TABS,ioos:station:wmo:42046:1,2004-12-01T05:00:00Z,27.8903,-94.0367,2.0,138.3044758,19.99487184,-99999.0,'11111222,11111222,99999999' 
TABS,ioos:station:wmo:42046:1,2004-12-01T05:30:00Z,27.8903,-94.0367,2.0,144.4977896,16.84079867,-99999.0,'11111222,11111222,99999999' 
TABS,ioos:station:wmo:42046:1,2004-12-01T06:00:00Z,27.8903,-94.0367,2.0,151.9455413,16.69117731,-99999.0,'11111222,11111222,99999999' 
TABS,ioos:station:wmo:42046:1,2004-12-01T06:30:00Z,27.8903,-94.0367,2.0,153.5669701,19.38676095,-99999.0,'11111222,11111222,99999999' 
TABS,ioos:station:wmo:42046:1,2004-12-01T07:00:00Z,27.8903,-94.0367,2.0,157.9572441,11.91060452,-99999.0,'11111222,11111222,99999999' 
TABS,ioos:station:wmo:42046:1,2004-12-01T07:30:00Z,27.8903,-94.0367,2.0,172.3594006,13.23752243,-99999.0,'11111222,11111222,99999999' 
TABS,ioos:station:wmo:42046:1,2004-12-01T08:00:00Z,27.8903,-94.0367,2.0,168.4066046,13.88323089,-99999.0,'11111222,11111222,99999999' 
TABS,ioos:station:wmo:42046:1,2004-12-01T08:30:00Z,27.8903,-94.0367,2.0,162.4675987,8.630926949,-99999.0,'11133222,11111222,99999999' 
TABS,ioos:station:wmo:42046:1,2004-12-01T09:00:00Z,27.8903,-94.0367,2.0,192.3151355,11.06461477,-99999.0,'11111222,11111222,99999999' 
TABS,ioos:station:wmo:42046:1,2004-12-01T09:30:00Z,27.8903,-94.0367,2.0,219.1235862,4.627580361,-99999.0,'11133222,11111222,99999999' 
TABS,ioos:station:wmo:42046:1,2004-12-01T10:00:00Z,27.8903,-94.0367,2.0,158.4138947,11.85116028,-99999.0,'11111222,11111222,99999999' 
TABS,ioos:station:wmo:42046:1,2004-12-01T10:30:00Z,27.8903,-94.0367,2.0,192.9482389,6.515681085,-99999.0,'11133222,11111222,99999999' 
TABS,ioos:station:wmo:42046:1,2004-12-01T11:00:00Z,27.8903,-94.0367,2.0,173.1778241,6.566490691,-99999.0,'11133222,11111222,99999999' 
TABS,ioos:station:wmo:42046:1,2004-12-01T11:30:00Z,27.8903,-94.0367,2.0,243.43459,4.673382073,-99999.0,'11133222,11111222,99999999' 
TABS,ioos:station:wmo:42046:1,2004-12-01T12:00:00Z,27.8903,-94.0367,2.0,160.6114891,10.45277475,-99999.0,'11111222,11111222,99999999' 
TABS,ioos:station:wmo:42046:1,2004-12-01T12:30:00Z,27.8903,-94.0367,2.0,179.7307979,6.390070422,-99999.0,'11133222,11111222,99999999' 
TABS,ioos:station:wmo:42046:1,2004-12-01T13:00:00Z,27.8903,-94.0367,2.0,189.2866953,3.222235249,-99999.0,'11133222,11111222,99999999' 
TABS,ioos:station:wmo:42046:1,2004-12-01T13:30:00Z,27.8903,-94.0367,2.0,180.8112883,3.53035409,-99999.0,'11133222,11111222,99999999' 
TABS,ioos:station:wmo:42046:1,2004-12-01T14:00:00Z,27.8903,-94.0367,2.0,129.6831263,4.197058494,-99999.0,'11133222,11111222,99999999' 
TABS,ioos:station:wmo:42046:1,2004-12-01T14:30:00Z,27.8903,-94.0367,2.0,115.2935312,3.627795474,-99999.0,'11133222,11111222,99999999' 
TABS,ioos:station:wmo:42046:1,2004-12-01T15:00:00Z,27.8903,-94.0367,2.0,132.7555756,5.597508374,-99999.0,'11133222,11111222,99999999' 
TABS,ioos:station:wmo:42046:1,2004-12-01T15:30:00Z,27.8903,-94.0367,2.0,323.9398598,2.548254304,-99999.0,'11133222,11111222,99999999' 
TABS,ioos:station:wmo:42046:1,2004-12-01T16:00:00Z,27.8903,-94.0367,2.0,183.9840962,4.029739446,-99999.0,'11133222,11111222,99999999' 
TABS,ioos:station:wmo:42046:1,2004-12-01T16:30:00Z,27.8903,-94.0367,2.0,26.29493904,4.740516849,-99999.0,'11133222,11111222,99999999' 
TABS,ioos:station:wmo:42046:1,2004-12-01T17:00:00Z,27.8903,-94.0367,2.0,327.5290941,4.563441684,-99999.0,'11133222,11111222,99999999' 
TABS,ioos:station:wmo:42046:1,2004-12-01T17:30:00Z,27.8903,-94.0367,2.0,316.2152125,4.335539182,-99999.0,'11133222,11111222,99999999' 
TABS,ioos:station:wmo:42046:1,2004-12-01T18:00:00Z,27.8903,-94.0367,2.0,266.5313579,2.644844041,-99999.0,'11133222,11111222,99999999' 
TABS,ioos:station:wmo:42046:1,2004-12-01T18:30:00Z,27.8903,-94.0367,2.0,310.1162473,3.072930198,-99999.0,'11133222,11111222,99999999' 
TABS,ioos:station:wmo:42046:1,2004-12-01T19:00:00Z,27.8903,-94.0367,2.0,338.0107738,6.222684308,-99999.0,'11133222,11111222,99999999' 
TABS,ioos:station:wmo:42046:1,2004-12-01T19:30:00Z,27.8903,-94.0367,2.0,355.9033864,3.639299383,-99999.0,'11133222,11111222,99999999' 
TABS,ioos:station:wmo:42046:1,2004-12-01T20:00:00Z,27.8903,-94.0367,2.0,10.85028972,3.665528611,-99999.0,'11133222,11111222,99999999' 
TABS,ioos:station:wmo:42046:1,2004-12-01T20:30:00Z,27.8903,-94.0367,2.0,353.206738,6.002141285,-99999.0,'11133222,11111222,99999999' 
TABS,ioos:station:wmo:42046:1,2004-12-01T21:00:00Z,27.8903,-94.0367,2.0,39.4645116,6.450612374,-99999.0,'11133222,11111222,99999999' 
TABS,ioos:station:wmo:42046:1,2004-12-01T21:30:00Z,27.8903,-94.0367,2.0,14.49082532,7.033754332,-99999.0,'11133222,11111222,99999999' 
TABS,ioos:station:wmo:42046:1,2004-12-01T22:00:00Z,27.8903,-94.0367,2.0,332.3836859,6.57962005,-99999.0,'11133222,11111222,99999999' 
TABS,ioos:station:wmo:42046:1,2004-12-01T22:30:00Z,27.8903,-94.0367,2.0,82.97013057,5.229311618,-99999.0,'11133222,11111222,99999999' 
TABS,ioos:station:wmo:42046:1,2004-12-01T23:00:00Z,27.8903,-94.0367,2.0,64.67364272,8.275385187,-99999.0,'11133222,11111222,99999999' 
TABS,ioos:station:wmo:42046:1,2004-12-01T23:30:00Z,27.8903,-94.0367,2.0,68.55992231,5.006445845,-99999.0,'11133222,11111222,99999999' 
TABS,ioos:station:wmo:42046:1,2004-12-02T00:00:00Z,27.8903,-94.0367,2.0,84.19328667,3.558258001,-99999.0,'11133222,11111222,99999999' 
TABS,ioos:station:wmo:42046:1,2004-12-02T00:30:00Z,27.8903,-94.0367,2.0,97.27977635,5.050712821,-99999.0,'11133222,11111222,99999999' 
TABS,ioos:station:wmo:42046:1,2004-12-02T01:00:00Z,27.8903,-94.0367,2.0,91.26677343,8.141989929,-99999.0,'11133222,11111222,99999999' 
TABS,ioos:station:wmo:42046:1,2004-12-02T01:30:00Z,27.8903,-94.0367,2.0,110.79534,15.97040388,-99999.0,'11111222,11111222,99999999' 
TABS,ioos:station:wmo:42046:1,2004-12-02T02:00:00Z,27.8903,-94.0367,2.0,123.8092096,15.99481478,-99999.0,'11111222,11111222,99999999' 
TABS,ioos:station:wmo:42046:1,2004-12-02T02:30:00Z,27.8903,-94.0367,2.0,114.2916124,13.07787445,-99999.0,'11111222,11111222,99999999' 
TABS,ioos:station:wmo:42046:1,2004-12-02T03:00:00Z,27.8903,-94.0367,2.0,121.5216526,14.44086563,-99999.0,'11111222,11111222,99999999' 
TABS,ioos:station:wmo:42046:1,2004-12-02T03:30:00Z,27.8903,-94.0367,2.0,120.9071858,15.65268348,-99999.0,'11111222,11111222,99999999' 
TABS,ioos:station:wmo:42046:1,2004-12-02T04:00:00Z,27.8903,-94.0367,2.0,114.8761331,16.23643434,-99999.0,'11111222,11111222,99999999' 
TABS,ioos:station:wmo:42046:1,2004-12-02T04:30:00Z,27.8903,-94.0367,2.0,114.5117352,13.97992847,-99999.0,'11111222,11111222,99999999' 
TABS,ioos:station:wmo:42046:1,2004-12-02T05:00:00Z,27.8903,-94.0367,2.0,109.9763971,14.69409745,-99999.0,'11111222,11111222,99999999' 
TABS,ioos:station:wmo:42046:1,2004-12-02T05:30:00Z,27.8903,-94.0367,2.0,109.7379796,10.98543126,-99999.0,'11111222,11111222,99999999' 
TABS,ioos:station:wmo:42046:1,2004-12-02T06:00:00Z,27.8903,-94.0367,2.0,110.5951259,11.99672039,-99999.0,'11111222,11111222,99999999' 
TABS,ioos:station:wmo:42046:1,2004-12-02T06:30:00Z,27.8903,-94.0367,2.0,99.6064484,13.7224269,-99999.0,'11111222,11111222,99999999' 
TABS,ioos:station:wmo:42046:1,2004-12-02T07:00:00Z,27.8903,-94.0367,2.0,103.1636234,10.67037956,-99999.0,'11111222,11111222,99999999' 
TABS,ioos:station:wmo:42046:1,2004-12-02T07:30:00Z,27.8903,-94.0367,2.0,94.43170762,9.317859196,-99999.0,'11133222,11111222,99999999' 
TABS,ioos:station:wmo:42046:1,2004-12-02T08:00:00Z,27.8903,-94.0367,2.0,98.35957068,10.59254455,-99999.0,'11111222,11111222,99999999' 
TABS,ioos:station:wmo:42046:1,2004-12-02T08:30:00Z,27.8903,-94.0367,2.0,96.37427741,9.277354149,-99999.0,'11133222,11111222,99999999' 
TABS,ioos:station:wmo:42046:1,2004-12-02T09:00:00Z,27.8903,-94.0367,2.0,93.05796233,11.99708298,-99999.0,'11111222,11111222,99999999' 
TABS,ioos:station:wmo:42046:1,2004-12-02T09:30:00Z,27.8903,-94.0367,2.0,85.04542618,11.46283124,-99999.0,'11111222,11111222,99999999' 
TABS,ioos:station:wmo:42046:1,2004-12-02T10:00:00Z,27.8903,-94.0367,2.0,98.44866866,9.664884893,-99999.0,'11133222,11111222,99999999' 
TABS,ioos:station:wmo:42046:1,2004-12-02T10:30:00Z,27.8903,-94.0367,2.0,108.1197921,9.774748079,-99999.0,'11133222,11111222,99999999' 
TABS,ioos:station:wmo:42046:1,2004-12-02T11:00:00Z,27.8903,-94.0367,2.0,89.94969655,11.39000439,-99999.0,'11111222,11111222,99999999' 
TABS,ioos:station:wmo:42046:1,2004-12-02T11:30:00Z,27.8903,-94.0367,2.0,89.29516821,11.38086113,-99999.0,'11111222,11111222,99999999' 
TABS,ioos:station:wmo:42046:1,2004-12-02T12:00:00Z,27.8903,-94.0367,2.0,96.7612227,7.814345782,-99999.0,'11133222,11111222,99999999' 
TABS,ioos:station:wmo:42046:1,2004-12-02T12:30:00Z,27.8903,-94.0367,2.0,98.80892723,11.1009414,-99999.0,'11111222,11111222,99999999' 
TABS,ioos:station:wmo:42046:1,2004-12-02T13:00:00Z,27.8903,-94.0367,2.0,105.9580122,12.43937297,-99999.0,'11111222,11111222,99999999' 
TABS,ioos:station:wmo:42046:1,2004-12-02T13:30:00Z,27.8903,-94.0367,2.0,94.59053245,9.620862747,-99999.0,'11133222,11111222,99999999' 
TABS,ioos:station:wmo:42046:1,2004-12-02T14:00:00Z,27.8903,-94.0367,2.0,94.49982656,9.559466512,-99999.0,'11133222,11111222,99999999' 
TABS,ioos:station:wmo:42046:1,2004-12-02T14:30:00Z,27.8903,-94.0367,2.0,76.73229652,7.233062975,-99999.0,'11133222,11111222,99999999' 
TABS,ioos:station:wmo:42046:1,2004-12-02T15:00:00Z,27.8903,-94.0367,2.0,71.99859657,5.015515926,-99999.0,'11133222,11111222,99999999' 
TABS,ioos:station:wmo:42046:1,2004-12-02T15:30:00Z,27.8903,-94.0367,2.0,76.78252135,7.128849837,-99999.0,'11133222,11111222,99999999' 
TABS,ioos:station:wmo:42046:1,2004-12-02T16:00:00Z,27.8903,-94.0367,2.0,59.30639436,7.640346851,-99999.0,'11133222,11111222,99999999' 
TABS,ioos:station:wmo:42046:1,2004-12-02T16:30:00Z,27.8903,-94.0367,2.0,59.77516958,7.846712687,-99999.0,'11133222,11111222,99999999' 
TABS,ioos:station:wmo:42046:1,2004-12-02T17:00:00Z,27.8903,-94.0367,2.0,35.47373997,9.356778292,-99999.0,'11133222,11111222,99999999' 
TABS,ioos:station:wmo:42046:1,2004-12-02T17:30:00Z,27.8903,-94.0367,2.0,43.07129011,10.29423625,-99999.0,'11111222,11111222,99999999' 
TABS,ioos:station:wmo:42046:1,2004-12-02T18:00:00Z,27.8903,-94.0367,2.0,43.1083858,10.0676164,-99999.0,'11111222,11111222,99999999' 
TABS,ioos:station:wmo:42046:1,2004-12-02T18:30:00Z,27.8903,-94.0367,2.0,34.81609585,9.598166492,-99999.0,'11133222,11111222,99999999' 
TABS,ioos:station:wmo:42046:1,2004-12-02T19:00:00Z,27.8903,-94.0367,2.0,33.13371339,13.13592022,-99999.0,'11111222,11111222,99999999' 
TABS,ioos:station:wmo:42046:1,2004-12-02T19:30:00Z,27.8903,-94.0367,2.0,25.44016972,11.61637637,-99999.0,'11111222,11111222,99999999' 
TABS,ioos:station:wmo:42046:1,2004-12-02T20:00:00Z,27.8903,-94.0367,2.0,45.00010523,12.9824805,-99999.0,'11111222,11111222,99999999' 
TABS,ioos:station:wmo:42046:1,2004-12-02T20:30:00Z,27.8903,-94.0367,2.0,63.93883436,16.27473195,-99999.0,'11111222,11111222,99999999' 
TABS,ioos:station:wmo:42046:1,2004-12-02T21:00:00Z,27.8903,-94.0367,2.0,55.61676113,16.7337563,-99999.0,'11111222,11111222,99999999' 
TABS,ioos:station:wmo:42046:1,2004-12-02T21:30:00Z,27.8903,-94.0367,2.0,50.83388164,17.67018959,-99999.0,'11111222,11111222,99999999' 
TABS,ioos:station:wmo:42046:1,2004-12-02T22:00:00Z,27.8903,-94.0367,2.0,53.65308879,18.84678487,-99999.0,'11111222,11111222,99999999' 
TABS,ioos:station:wmo:42046:1,2004-12-02T22:30:00Z,27.8903,-94.0367,2.0,57.61589291,20.2018811,-99999.0,'11111222,11111222,99999999' 
TABS,ioos:station:wmo:42046:1,2004-12-02T23:00:00Z,27.8903,-94.0367,2.0,52.6293406,16.24462065,-99999.0,'11111222,11111222,99999999' 
TABS,ioos:station:wmo:42046:1,2004-12-02T23:30:00Z,27.8903,-94.0367,2.0,60.6972204,15.91661082,-99999.0,'11111222,11111222,99999999' 
TABS,ioos:station:wmo:42046:1,2004-12-03T00:00:00Z,27.8903,-94.0367,2.0,68.85133446,9.617785608,-99999.0,'11133222,11111222,99999999' 
TABS,ioos:station:wmo:42046:1,2004-12-03T00:30:00Z,27.8903,-94.0367,2.0,56.74343214,17.23225464,-99999.0,'11111222,11111222,99999999' 
TABS,ioos:station:wmo:42046:1,2004-12-03T01:00:00Z,27.8903,-94.0367,2.0,68.73057326,17.2017005,-99999.0,'11111222,11111222,99999999' 
TABS,ioos:station:wmo:42046:1,2004-12-03T01:30:00Z,27.8903,-94.0367,2.0,72.8029953,17.41872843,-99999.0,'11111222,11111222,99999999' 
TABS,ioos:station:wmo:42046:1,2004-12-03T02:00:00Z,27.8903,-94.0367,2.0,79.00751812,16.99176271,-99999.0,'11111222,11111222,99999999' 
TABS,ioos:station:wmo:42046:1,2004-12-03T02:30:00Z,27.8903,-94.0367,2.0,74.19693529,17.69896325,-99999.0,'11111222,11111222,99999999' 
TABS,ioos:station:wmo:42046:1,2004-12-03T03:00:00Z,27.8903,-94.0367,2.0,81.47552232,18.07973451,-99999.0,'11111222,11111222,99999999' 
TABS,ioos:station:wmo:42046:1,2004-12-03T03:30:00Z,27.8903,-94.0367,2.0,78.78792367,17.22882759,-99999.0,'11111222,11111222,99999999' 
TABS,ioos:station:wmo:42046:1,2004-12-03T04:00:00Z,27.8903,-94.0367,2.0,82.56345275,14.3708768,-99999.0,'11111222,11111222,99999999' 
TABS,ioos:station:wmo:42046:1,2004-12-03T04:30:00Z,27.8903,-94.0367,2.0,98.11646422,17.84878987,-99999.0,'11111222,11111222,99999999' 
TABS,ioos:station:wmo:42046:1,2004-12-03T05:00:00Z,27.8903,-94.0367,2.0,88.95178003,14.21237841,-99999.0,'11111222,11111222,99999999' 
TABS,ioos:station:wmo:42046:1,2004-12-03T05:30:00Z,27.8903,-94.0367,2.0,90.66053946,16.48109523,-99999.0,'11111222,11111222,99999999' 
TABS,ioos:station:wmo:42046:1,2004-12-03T06:00:00Z,27.8903,-94.0367,2.0,84.42425898,15.64401803,-99999.0,'11111222,11111222,99999999' 
TABS,ioos:station:wmo:42046:1,2004-12-03T06:30:00Z,27.8903,-94.0367,2.0,73.36682762,15.79073463,-99999.0,'11111222,11111222,99999999' 
TABS,ioos:station:wmo:42046:1,2004-12-03T07:00:00Z,27.8903,-94.0367,2.0,93.06938822,17.55518442,-99999.0,'11111222,11111222,99999999' 
TABS,ioos:station:wmo:42046:1,2004-12-03T07:30:00Z,27.8903,-94.0367,2.0,94.50615715,19.21940946,-99999.0,'11111222,11111222,99999999' 
TABS,ioos:station:wmo:42046:1,2004-12-03T08:00:00Z,27.8903,-94.0367,2.0,91.83039635,22.54150172,-99999.0,'11111222,11111222,99999999' 
TABS,ioos:station:wmo:42046:1,2004-12-03T08:30:00Z,27.8903,-94.0367,2.0,100.8288905,21.0243906,-99999.0,'11111222,11111222,99999999' 
TABS,ioos:station:wmo:42046:1,2004-12-03T09:00:00Z,27.8903,-94.0367,2.0,101.3313932,20.91774844,-99999.0,'11111222,11111222,99999999' 
TABS,ioos:station:wmo:42046:1,2004-12-03T09:30:00Z,27.8903,-94.0367,2.0,101.1641434,20.81387278,-99999.0,'11111222,11111222,99999999' 
TABS,ioos:station:wmo:42046:1,2004-12-03T10:00:00Z,27.8903,-94.0367,2.0,91.92172133,16.6993922,-99999.0,'11111222,11111222,99999999' 
TABS,ioos:station:wmo:42046:1,2004-12-03T10:30:00Z,27.8903,-94.0367,2.0,91.52346123,18.80664776,-99999.0,'11111222,11111222,99999999' 
TABS,ioos:station:wmo:42046:1,2004-12-03T11:00:00Z,27.8903,-94.0367,2.0,90.61908406,20.36118857,-99999.0,'11111222,11111222,99999999' 
TABS,ioos:station:wmo:42046:1,2004-12-03T11:30:00Z,27.8903,-94.0367,2.0,88.63697679,15.13428228,-99999.0,'11111222,11111222,99999999' 
TABS,ioos:station:wmo:42046:1,2004-12-03T12:00:00Z,27.8903,-94.0367,2.0,93.64019886,21.26289961,-99999.0,'11111222,11111222,99999999' 
TABS,ioos:station:wmo:42046:1,2004-12-03T12:30:00Z,27.8903,-94.0367,2.0,101.0598393,22.46727843,-99999.0,'11111222,11111222,99999999' 
TABS,ioos:station:wmo:42046:1,2004-12-03T13:00:00Z,27.8903,-94.0367,2.0,97.96450112,20.06353159,-99999.0,'11111222,11111222,99999999' 
TABS,ioos:station:wmo:42046:1,2004-12-03T13:30:00Z,27.8903,-94.0367,2.0,92.63065254,18.51951673,-99999.0,'11111222,11111222,99999999' 
TABS,ioos:station:wmo:42046:1,2004-12-03T14:00:00Z,27.8903,-94.0367,2.0,106.0026435,21.98182204,-99999.0,'11111222,11111222,99999999' 
TABS,ioos:station:wmo:42046:1,2004-12-03T14:30:00Z,27.8903,-94.0367,2.0,99.01930134,22.32604981,-99999.0,'11111222,11111222,99999999' 
TABS,ioos:station:wmo:42046:1,2004-12-03T15:00:00Z,27.8903,-94.0367,2.0,104.1431054,22.09988462,-99999.0,'11111222,11111222,99999999' 
TABS,ioos:station:wmo:42046:1,2004-12-03T15:30:00Z,27.8903,-94.0367,2.0,99.13206947,21.10753657,-99999.0,'11111222,11111222,99999999' 
TABS,ioos:station:wmo:42046:1,2004-12-03T16:00:00Z,27.8903,-94.0367,2.0,83.51694147,19.04176725,-99999.0,'11111222,11111222,99999999' 
TABS,ioos:station:wmo:42046:1,2004-12-03T16:30:00Z,27.8903,-94.0367,2.0,88.42456488,14.18536217,-99999.0,'11111222,11111222,99999999' 
TABS,ioos:station:wmo:42046:1,2004-12-03T17:00:00Z,27.8903,-94.0367,2.0,94.72208617,16.03442547,-99999.0,'11111222,11111222,99999999' 
TABS,ioos:station:wmo:42046:1,2004-12-03T17:30:00Z,27.8903,-94.0367,2.0,112.0016571,21.24739043,-99999.0,'11111222,11111222,99999999' 
TABS,ioos:station:wmo:42046:1,2004-12-03T18:00:00Z,27.8903,-94.0367,2.0,101.5104309,18.49190363,-99999.0,'11111222,11111222,99999999' 
TABS,ioos:station:wmo:42046:1,2004-12-03T18:30:00Z,27.8903,-94.0367,2.0,103.3276173,18.827055,-99999.0,'11111222,11111222,99999999' 
TABS,ioos:station:wmo:42046:1,2004-12-03T19:00:00Z,27.8903,-94.0367,2.0,104.9516424,16.39507548,-99999.0,'11111222,11111222,99999999' 
TABS,ioos:station:wmo:42046:1,2004-12-03T19:30:00Z,27.8903,-94.0367,2.0,104.5206501,14.91647411,-99999.0,'11111222,11111222,99999999' 
TABS,ioos:station:wmo:42046:1,2004-12-03T20:00:00Z,27.8903,-94.0367,2.0,104.9110799,16.36093518,-99999.0,'11111222,11111222,99999999' 
TABS,ioos:station:wmo:42046:1,2004-12-03T20:30:00Z,27.8903,-94.0367,2.0,95.60717622,17.09178165,-99999.0,'11111222,11111222,99999999' 
TABS,ioos:station:wmo:42046:1,2004-12-03T21:00:00Z,27.8903,-94.0367,2.0,90.19577024,17.56010251,-99999.0,'11111222,11111222,99999999' 
TABS,ioos:station:wmo:42046:1,2004-12-03T21:30:00Z,27.8903,-94.0367,2.0,87.24975236,14.79704362,-99999.0,'11111222,11111222,99999999' 
TABS,ioos:station:wmo:42046:1,2004-12-03T22:00:00Z,27.8903,-94.0367,2.0,84.23880914,14.64396804,-99999.0,'11111222,11111222,99999999' 
TABS,ioos:station:wmo:42046:1,2004-12-03T22:30:00Z,27.8903,-94.0367,2.0,86.04074429,12.60007143,-99999.0,'11111222,11111222,99999999' 
TABS,ioos:station:wmo:42046:1,2004-12-03T23:00:00Z,27.8903,-94.0367,2.0,80.78255161,14.23379429,-99999.0,'11111222,11111222,99999999' 
TABS,ioos:station:wmo:42046:1,2004-12-03T23:30:00Z,27.8903,-94.0367,2.0,66.43422635,12.90637439,-99999.0,'11111222,11111222,99999999' 
TABS,ioos:station:wmo:42046:1,2004-12-04T00:00:00Z,27.8903,-94.0367,2.0,73.88539597,19.99566453,-99999.0,'11111222,11111222,99999999' 
TABS,ioos:station:wmo:42046:1,2004-12-04T00:30:00Z,27.8903,-94.0367,2.0,61.06632428,21.64126845,-99999.0,'11111222,11111222,99999999' 
TABS,ioos:station:wmo:42046:1,2004-12-04T01:00:00Z,27.8903,-94.0367,2.0,60.85795726,20.9865981,-99999.0,'11111222,11111222,99999999' 
TABS,ioos:station:wmo:42046:1,2004-12-04T01:30:00Z,27.8903,-94.0367,2.0,67.32090843,22.30462732,-99999.0,'11111222,11111222,99999999' 
TABS,ioos:station:wmo:42046:1,2004-12-04T02:00:00Z,27.8903,-94.0367,2.0,56.52028287,21.91635234,-99999.0,'11111222,11111222,99999999' 
TABS,ioos:station:wmo:42046:1,2004-12-04T02:30:00Z,27.8903,-94.0367,2.0,54.63966043,22.16969328,-99999.0,'11111222,11111222,99999999' 
TABS,ioos:station:wmo:42046:1,2004-12-04T03:00:00Z,27.8903,-94.0367,2.0,70.81646205,20.57237225,-99999.0,'11111222,11111222,99999999' 
TABS,ioos:station:wmo:42046:1,2004-12-04T03:30:00Z,27.8903,-94.0367,2.0,85.21301207,20.3710579,-99999.0,'11111222,11111222,99999999' 
TABS,ioos:station:wmo:42046:1,2004-12-04T04:00:00Z,27.8903,-94.0367,2.0,84.18676295,22.21424093,-99999.0,'11111222,11111222,99999999' 
TABS,ioos:station:wmo:42046:1,2004-12-04T04:30:00Z,27.8903,-94.0367,2.0,89.3502595,24.69158764,-99999.0,'11111222,11111222,99999999' 
TABS,ioos:station:wmo:42046:1,2004-12-04T05:00:00Z,27.8903,-94.0367,2.0,96.18801204,23.28567371,-99999.0,'11111222,11111222,99999999' 
TABS,ioos:station:wmo:42046:1,2004-12-04T05:30:00Z,27.8903,-94.0367,2.0,96.89129589,22.50256874,-99999.0,'11111222,11111222,99999999' 
TABS,ioos:station:wmo:42046:1,2004-12-04T06:00:00Z,27.8903,-94.0367,2.0,111.4485283,22.61626406,-99999.0,'11111222,11111222,99999999' 
TABS,ioos:station:wmo:42046:1,2004-12-04T06:30:00Z,27.8903,-94.0367,2.0,116.3944985,24.04678149,-99999.0,'11111222,11111222,99999999' 
TABS,ioos:station:wmo:42046:1,2004-12-04T07:00:00Z,27.8903,-94.0367,2.0,107.2178934,24.86427357,-99999.0,'11111222,11111222,99999999' 
TABS,ioos:station:wmo:42046:1,2004-12-04T07:30:00Z,27.8903,-94.0367,2.0,102.0267734,21.78824683,-99999.0,'11111222,11111222,99999999' 
TABS,ioos:station:wmo:42046:1,2004-12-04T08:00:00Z,27.8903,-94.0367,2.0,100.2980695,22.76674988,-99999.0,'11111222,11111222,99999999' 
TABS,ioos:station:wmo:42046:1,2004-12-04T08:30:00Z,27.8903,-94.0367,2.0,100.8255341,22.73459478,-99999.0,'11111222,11111222,99999999' 
TABS,ioos:station:wmo:42046:1,2004-12-04T09:00:00Z,27.8903,-94.0367,2.0,101.489661,19.37833068,-99999.0,'11111222,11111222,99999999' 
TABS,ioos:station:wmo:42046:1,2004-12-04T09:30:00Z,27.8903,-94.0367,2.0,98.03020725,21.90478715,-99999.0,'11111222,11111222,99999999' 
TABS,ioos:station:wmo:42046:1,2004-12-04T10:00:00Z,27.8903,-94.0367,2.0,95.43610112,19.31687863,-99999.0,'11111222,11111222,99999999' 
TABS,ioos:station:wmo:42046:1,2004-12-04T10:30:00Z,27.8903,-94.0367,2.0,92.29060469,22.01759297,-99999.0,'11111222,11111222,99999999' 
TABS,ioos:station:wmo:42046:1,2004-12-04T11:00:00Z,27.8903,-94.0367,2.0,100.9275766,22.63034467,-99999.0,'11111222,11111222,99999999' 
TABS,ioos:station:wmo:42046:1,2004-12-04T11:30:00Z,27.8903,-94.0367,2.0,97.16248791,20.85272404,-99999.0,'11111222,11111222,99999999' 
TABS,ioos:station:wmo:42046:1,2004-12-04T12:00:00Z,27.8903,-94.0367,2.0,102.3714575,16.19608903,-99999.0,'11111222,11111222,99999999' 
TABS,ioos:station:wmo:42046:1,2004-12-04T12:30:00Z,27.8903,-94.0367,2.0,103.8406631,19.18710504,-99999.0,'11111222,11111222,99999999' 
TABS,ioos:station:wmo:42046:1,2004-12-04T13:00:00Z,27.8903,-94.0367,2.0,99.83504917,19.9633915,-99999.0,'11111222,11111222,99999999' 
TABS,ioos:station:wmo:42046:1,2004-12-04T13:30:00Z,27.8903,-94.0367,2.0,101.2106069,21.50024418,-99999.0,'11111222,11111222,99999999' 
TABS,ioos:station:wmo:42046:1,2004-12-04T14:00:00Z,27.8903,-94.0367,2.0,101.4698545,23.18297867,-99999.0,'11111222,11111222,99999999' 
TABS,ioos:station:wmo:42046:1,2004-12-04T14:30:00Z,27.8903,-94.0367,2.0,112.1124764,21.54469076,-99999.0,'11111222,11111222,99999999' 
TABS,ioos:station:wmo:42046:1,2004-12-04T15:00:00Z,27.8903,-94.0367,2.0,109.0152786,19.98029529,-99999.0,'11111222,11111222,99999999' 
TABS,ioos:station:wmo:42046:1,2004-12-04T15:30:00Z,27.8903,-94.0367,2.0,113.2663328,19.97434855,-99999.0,'11111222,11111222,99999999' 
TABS,ioos:station:wmo:42046:1,2004-12-04T16:00:00Z,27.8903,-94.0367,2.0,113.061709,21.4437147,-99999.0,'11111222,11111222,99999999' 